This demonstration page uses our WeatherBlox Daily Observations layout. Learn more.

Left ArrowRight Arrow

41.12389, -100.76542

Hourly Observations for March 22, 2018

Temp ( °F °C ) Dew Point ( °F °C ) Humidity (%) Winds ( mph kmh ) Pressure ( in mb ) Visibility ( mi km ) Precip ( " mm )
12:53 am 00:53 Cloudy 47 8.3 30 -1.1 52 52 SSE 3 6 30.02 1017 10 16 0.00 0.00
1:53 am 01:53 Cloudy 47 8.3 29 -1.7 50 50 SW 7 11 30.03 1017 10 16 0.00 0.00
2:53 am 02:53 Clear 41 5 27 -2.8 57 57 VRB 3 6 30.05 1018 10 16 0.00 0.00
3:53 am 03:53 Clear 37 2.8 27 -2.8 67 67 SSE 3 6 30.05 1018 10 16 0.00 0.00
4:53 am 04:53 Clear 38 3.3 29 -1.7 70 70 SSE 6 9 30.04 1017 10 16 0.00 0.00
5:53 am 05:53 Clear 36 2.2 28 -2.2 73 73 NW 5 7 30.04 1017 10 16 0.00 0.00
6:53 am 06:53 Clear 36 2.2 28 -2.2 73 73 SW 5 7 30.05 1018 10 16 0.00 0.00
7:53 am 07:53 Sunny 30 -1.1 25 -3.9 82 82 W 3 6 30.09 1019 10 16 0.00 0.00
8:53 am 08:53 Sunny 38 3.3 31 -0.6 76 76 Calm 30.09 1019 10 16 0.00 0.00
9:53 am 09:53 Sunny 45 7.2 31 -0.6 58 58 W 3 6 30.09 1019 10 16 0.00 0.00
10:53 am 10:53 Sunny 50 10 30 -1.1 46 46 Calm 30.08 1019 10 16 0.00 0.00
11:53 am 11:53 Sunny 55 12.8 32 0 42 42 VRB 3 6 30.07 1018 10 16 0.00 0.00
12:53 pm 12:53 Sunny 66 18.9 31 -0.6 27 27 VRB 7 11 30.03 1017 10 16 0.00 0.00
1:53 pm 13:53 Sunny 68 20 33 0.6 27 27 SE 5 7 30.02 1017 10 16 0.00 0.00
2:53 pm 14:53 Sunny 69 20.6 33 0.6 26 26 VRB 3 6 30.01 1016 10 16 0.00 0.00
3:53 pm 15:53 Sunny 71 21.7 32 0 24 24 SW 5 7 30.00 1016 10 16 0.00 0.00
4:53 pm 16:53 Sunny 72 22.2 33 0.6 24 24 VRB 6 9 29.98 1015 10 16 0.00 0.00
5:53 pm 17:53 Sunny 70 21.1 34 1.1 27 27 E 12 19 29.98 1015 10 16 0.00 0.00
6:53 pm 18:53 Sunny 68 20 34 1.1 28 28 ESE 13 20 29.98 1015 10 16 0.00 0.00
7:53 pm 19:53 Sunny 60 15.6 36 2.2 41 41 E 10 17 30.02 1017 10 16 0.00 0.00
8:53 pm 20:53 Clear 56 13.3 39 3.9 53 53 ESE 10 17 30.03 1017 10 16 0.00 0.00
9:53 pm 21:53 Clear 54 12.2 39 3.9 57 57 E 13 20 30.02 1017 10 16 0.00 0.00
10:53 pm 22:53 Clear 54 12.2 38 3.3 55 55 ESE 15 24 29.99 1016 10 16 0.00 0.00
11:53 pm 23:53 Clear 53 11.7 38 3.3 57 57 ESE 17 28 29.97 1015 10 16 0.00 0.00

Powered by AerisWeather